RH
73 68 66 71 71 69 70 67 75 68 69 56 65 71 67 66 65 64 65 66 67 73 76 65 61 63 58 60 63 61 62 63 64 62 63 64 65 69 72 71 66 69 66 72
81 68 69 69 65 67 65 65 64 63 60 50 54 66 64 62 59 60 61 60 60 62 58 51 48 56 54 57 64 61 61 62 60 61 61 66 68 69 66 69 70 70 73 76
83 79 65 73 63 56 62 57 56 63 51 62 70 61 58 56 52 53 56 58 60 60 52 48 48 52 57 62 68 64 62 57 59 63 62 67 66 64 66 70 72 74 76 71
91 81 90 60 51 52 58 52 51 50 53 59 61 62 55 48 48 54 56 57 60 59 50 49 50 50 60 68 68 64 61 58 61 62 61 68 63 65 69 71 74 78 75 69
90 94 75 56 50 52 55 51 59 57 62 60 61 55 59 54 56 60 58 62 65 57 52 50 48 49 62 65 63 61 58 60 60 62 64 65 65 70 71 75 79 74 66 70
98 94 86 61 52 53 49 72 62 66 67 66 60 82 68 63 68 70 69 65 62 51 46 49 49 53 54 56 57 56 57 60 60 64 65 66 67 72 74 80 66 67 66 68
98 91 82 58 45 48 72 69 69 63 67 70 69 72 64 74 69 68 63 53 48 40 39 40 44 53 53 54 55 54 58 60 62 62 59 62 70 74 78 74 73 83 78 81
94 94 84 59 61 68 64 73 67 64 66 68 68 79 79 70 71 57 42 36 36 36 36 38 43 46 50 52 53 53 56 56 59 63 56 59 74 77 74 78 86 85 83 81
83 82 65 63 58 59 62 66 67 66 65 67 75 79 76 72 66 48 33 26 28 31 36 40 42 44 48 51 52 55 54 55 56 57 57 63 72 82 88 88 91 88 84 84
83 71 69 66 63 64 69 66 65 63 63 71 71 76 75 71 65 51 36 22 26 33 38 44 47 45 51 53 54 55 53 54 57 62 70 70 70 78 97 93 91 86 86 89
84 72 67 62 61 57 67 67 70 69 67 66 72 77 71 71 66 54 36 24 28 34 41 48 50 55 59 57 56 51 50 50 61 64 71 77 71 85 86 84 85 85 89 90
88 66 69 63 64 65 68 70 68 68 70 73 69 72 73 72 63 51 35 29 33 41 46 52 54 58 61 59 53 51 46 58 77 83 90 87 94 93 80 72 67 68 67 76
64 65 72 63 56 58 64 61 65 68 62 74 76 72 73 73 64 49 31 33 37 44 48 51 56 61 63 61 57 58 71 69 87 86 88 93 95 97 97 83 71 69 68 68
58 64 70 59 56 56 66 64 70 68 75 76 74 82 83 70 54 39 33 33 39 45 50 54 60 64 62 62 62 75 78 86 91 97 98 97 98 97 98 98 97 91 78 72
62 61 58 56 61 58 62 70 80 82 80 85 87 85 75 61 49 43 41 42 44 51 57 60 63 68 65 60 63 77 76 90 95 97 96 95 97 97 96 97 98 95 90 86
51 50 62 65 62 60 60 73 82 82 88 86 86 86 73 63 51 51 47 52 55 59 60 70 65 66 62 61 70 73 76 80 83 90 94 98 98 97 97 98 96 96 94 93
66 62 70 67 63 60 62 68 76 78 84 88 80 78 61 57 58 53 52 54 59 64 62 66 77 66 65 66 77 87 89 87 82 84 95 97 97 97 98 98 97 95 93 92
54 58 60 59 62 68 66 70 81 84 87 82 80 65 66 62 54 56 59 65 75 82 72 82 88 87 89 86 83 91 86 82 87 93 95 96 94 96 98 97 96 94 91 88
49 51 52 54 65 67 72 73 76 78 83 86 76 69 66 68 55 60 71 84 82 83 89 90 86 87 82 88 83 79 78 84 90 97 94 93 96 97 98 98 96 93 92 93
60 67 68 70 70 77 74 76 78 83 88 81 80 79 78 81 77 82 83 78 73 78 87 80 80 76 85 87 76 73 80 88 93 98 96 95 97 98 97 97 94 94 98 96
62 63 66 69 72 76 83 85 88 89 90 82 76 76 76 83 82 86 84 74 82 86 76 82 79 84 87 76 72 83 91 96 98 97 96 97 98 97 97 97 97 96 98 96
66 68 84 90 90 87 95 91 92 93 89 87 85 81 84 86 89 87 85 69 77 91 86 82 75 79 72 80 70 90 91 96 98 98 98 97 98 99 98 97 96 97 98 99
75 79 81 85 94 88 86 86 93 90 89 86 83 81 73 72 70 72 75 73 75 87 82 86 86 84 84 90 93 96 96 97 98 97 97 97 97 98 98 96 96 97 97 97
85 86 86 88 86 84 86 82 78 80 91 88 86 82 68 76 86 70 73 86 85 87 89 92 90 88 90 95 96 97 97 98 98 97 95 96 98 97 97 97 97 94 97 97
87 88 86 88 88 88 82 80 79 75 72 68 68 69 63 66 87 79 86 90 91 86 92 93 89 91 94 96 97 97 98 98 97 97 96 97 96 96 96 96 97 96 96 96
90 90 90 86 87 87 87 83 86 81 73 83 78 86 86 87 83 82 89 93 90 91 90 94 94 95 95 95 96 96 97 96 96 96 96 96 96 95 95 94 97 95 96 96
92 91 88 90 86 85 86 85 85 83 78 86 89 92 90 93 93 91 97 94 92 92 92 94 94 94 94 95 96 96 96 96 96 95 96 96 95 94 94 95 96 95 97 98
Wind_Speed
1 1 1 3 4 3 5 5 6 4 7 7 9 12 15 13 13 13 11 10 9 8 7 6 6 6 6 6 6 5 6 6 4 4 4 5 5 6 6 6 6 6 7 7
3 5 2 6 7 8 9 7 8 6 16 8 3 9 11 16 16 14 13 12 10 10 9 7 6 6 6 6 6 5 6 5 4 5 5 5 6 6 6 6 6 6 6 6
4 3 4 7 9 8 4 5 7 13 14 6 4 13 17 16 15 15 14 13 12 11 9 7 7 6 6 6 6 6 5 4 4 4 5 5 5 5 6 6 6 6 6 7
3 3 3 7 4 5 8 10 8 7 6 6 6 4 6 9 15 12 12 13 11 9 8 7 6 6 6 6 6 6 4 4 4 4 4 4 5 5 5 4 6 5 6 8
4 4 7 9 4 3 4 8 5 6 5 6 6 6 4 4 6 8 10 11 10 9 8 6 7 7 7 7 6 6 4 3 2 3 3 3 4 5 4 5 5 6 8 9
3 3 6 6 5 1 1 7 5 8 8 10 5 4 5 7 7 8 9 10 10 9 7 8 7 7 9 7 6 5 3 3 2 3 3 3 4 5 4 4 7 7 9 8
2 5 9 6 10 3 3 9 4 8 7 8 6 6 4 8 6 7 10 11 9 10 11 9 8 8 7 7 6 5 4 3 3 3 3 3 4 3 4 6 7 7 8 6
2 4 13 5 4 6 8 3 6 6 8 8 5 6 5 7 9 10 11 10 11 10 8 7 8 8 7 7 6 5 4 3 3 2 2 3 4 4 5 6 7 8 8 7
11 9 4 4 6 5 5 5 6 6 6 7 8 7 9 8 10 11 12 10 9 10 9 6 7 8 9 7 6 5 4 3 1 2 3 4 4 4 5 6 6 7 7 8
3 6 9 8 4 4 6 7 7 7 8 9 9 9 10 9 10 10 10 10 9 10 10 8 7 7 7 7 6 5 4 2 1 2 2 3 3 4 2 4 6 7 8 8
5 6 6 6 7 7 6 4 4 4 8 13 9 8 11 10 11 11 11 8 10 11 10 9 9 8 7 6 6 5 4 2 1 2 4 3 4 3 4 5 6 7 6 6
7 8 4 6 1 1 6 7 9 8 4 6 10 11 10 10 11 11 12 10 9 9 10 11 10 9 7 6 6 5 3 2 1 1 2 3 3 4 7 10 14 15 15 10
5 4 5 4 5 3 3 6 7 8 11 9 9 10 13 10 12 12 11 12 13 13 12 12 10 9 7 6 5 5 4 3 1 1 2 3 2 2 7 8 12 13 15 16
5 0 3 5 6 5 5 5 4 5 6 7 9 5 6 7 6 13 15 14 12 13 12 12 11 9 7 6 6 5 4 3 2 1 2 3 2 3 3 4 7 7 10 14
10 9 7 4 4 7 4 2 5 8 8 8 8 9 9 11 12 13 10 11 11 11 11 10 10 8 7 6 7 5 4 2 2 1 2 3 2 3 4 4 4 6 7 6
13 11 8 9 9 8 7 7 8 9 7 7 9 9 12 9 8 9 12 14 14 12 12 10 9 9 8 6 6 4 3 3 1 1 2 2 2 3 4 4 4 5 6 6
13 16 5 5 8 8 9 8 10 10 9 8 14 7 8 9 9 10 10 10 9 10 11 11 9 9 7 7 6 3 3 2 2 2 2 2 2 3 3 4 4 5 6 6
9 6 6 8 8 9 9 10 9 9 10 16 8 12 12 14 15 13 12 11 8 6 8 7 8 7 6 6 5 4 3 2 2 2 2 2 2 3 3 4 4 5 6 7
9 9 11 11 10 9 8 9 11 13 10 8 12 15 16 11 14 14 13 12 10 10 7 7 11 8 7 6 5 3 3 3 2 2 2 2 2 3 3 4 4 5 6 7
9 7 9 10 9 9 11 10 8 7 7 10 8 9 11 9 12 13 12 13 11 5 11 10 9 7 6 6 7 3 3 3 3 2 2 2 3 3 4 5 5 5 4 6
9 8 9 10 9 6 7 5 5 8 8 11 15 15 14 12 12 13 10 9 7 7 11 12 8 4 4 6 4 3 3 3 3 3 3 3 3 4 4 4 4 5 5 5
6 7 5 4 4 5 3 6 4 4 7 7 7 11 14 12 12 7 2 6 7 9 7 7 6 7 6 7 4 3 3 3 3 2 2 3 3 4 5 4 5 5 5 5
6 4 3 2 2 2 3 4 2 5 7 8 11 13 12 10 11 12 8 6 8 9 7 5 7 9 9 4 3 3 3 3 3 3 3 3 4 4 5 6 5 5 5 6
3 3 2 3 3 2 1 2 4 5 5 5 7 8 12 10 4 3 6 10 10 11 6 7 7 9 7 4 3 3 3 3 3 3 3 5 4 4 5 5 5 5 5 7
3 3 4 4 3 2 4 4 5 6 7 7 8 7 7 5 4 6 6 7 11 9 6 8 10 9 4 4 4 3 4 3 4 3 4 4 5 5 6 5 5 6 6 6
5 4 3 4 3 4 4 4 4 4 5 6 5 5 5 4 6 7 6 7 7 8 6 6 5 5 4 4 4 5 4 4 4 4 5 5 5 6 6 6 5 6 6 6
3 4 4 3 2 4 4 4 5 5 5 6 6 5 6 5 6 7 6 5 6 5 5 4 4 5 4 4 4 5 4 4 5 4 4 5 5 6 6 6 6 6 5 6
Wind_Direction
171 307 322 269 227 228 195 197 179 233 222 226 205 194 185 163 152 158 161 162 167 156 151 145 133 132 130 125 123 119 97 82 64 37 32 28 18 20 18 2 353 334 329 318
309 321 308 258 256 240 237 220 237 243 256 209 250 123 155 172 166 169 175 176 172 164 159 160 155 151 137 128 121 108 93 79 46 40 24 14 26 25 3 349 335 324 323 322
263 345 321 302 232 224 229 217 223 242 251 154 169 179 177 170 172 179 185 177 173 171 167 160 162 149 148 141 126 104 96 71 49 36 17 21 35 9 349 333 320 314 317 323
202 29 306 244 289 231 231 249 229 255 231 191 182 114 135 173 173 180 177 172 170 163 156 155 152 132 128 127 124 114 101 73 52 27 11 47 20 350 325 315 309 313 316 326
156 200 299 298 278 27 249 275 211 206 119 89 107 77 51 150 174 183 170 164 162 160 151 151 152 144 126 121 123 119 106 84 54 22 38 39 5 337 323 317 313 318 326 321
130 169 242 244 260 337 137 283 201 146 151 145 123 106 240 183 156 146 145 153 149 148 136 147 158 140 128 136 135 135 127 114 68 45 68 22 350 332 315 308 317 322 316 319
165 226 278 230 266 13 122 241 165 154 158 157 161 184 168 134 140 149 152 146 138 149 163 168 152 140 136 143 153 153 129 109 84 53 27 5 333 323 319 319 320 305 303 299
122 221 262 199 88 182 219 275 172 166 180 181 135 137 150 161 148 151 151 149 157 157 163 162 151 142 146 155 160 133 125 102 78 56 3 356 336 323 326 319 313 314 313 326
184 208 232 210 205 216 188 184 210 180 179 169 153 185 173 175 168 169 166 163 164 160 155 162 159 151 148 167 146 136 126 101 65 27 5 350 341 330 325 315 311 314 326 328
95 231 233 232 255 259 193 216 190 181 177 169 184 179 181 169 175 176 175 171 165 154 160 161 155 147 142 149 143 142 141 124 55 12 1 330 337 323 287 309 316 320 326 327
265 286 288 279 226 228 206 212 202 169 182 196 163 189 183 181 185 184 177 169 167 169 165 156 145 141 143 147 146 147 140 125 46 25 341 323 329 309 320 308 307 321 316 319
222 229 187 245 360 173 194 205 205 182 161 178 186 188 182 193 189 177 176 166 165 164 154 154 150 148 149 150 150 146 145 137 100 6 303 310 299 307 294 316 328 328 327 330
204 187 197 231 254 200 205 246 244 201 209 193 197 186 190 188 189 176 171 171 171 169 161 155 152 153 152 154 147 140 152 157 143 2 310 297 306 309 310 321 325 328 331 332
254 75 269 214 228 168 199 258 213 225 219 211 194 167 171 165 154 176 182 178 161 155 156 156 154 155 155 154 141 139 147 141 151 235 262 281 285 283 275 283 308 320 325 329
243 222 219 220 222 253 244 204 210 227 218 197 182 186 169 173 186 188 163 153 148 148 151 153 152 156 161 154 148 156 156 181 174 239 256 267 272 288 287 284 276 297 311 315
259 267 203 209 223 237 239 225 220 237 214 207 193 196 201 181 163 159 154 150 152 170 164 160 160 161 160 153 150 152 162 177 164 220 256 261 267 279 287 281 293 303 312 313
245 260 224 224 225 235 219 225 216 221 217 199 213 191 141 137 140 156 154 156 149 156 162 157 161 157 156 161 161 163 172 196 194 250 250 255 260 278 275 278 296 306 305 305
246 264 210 215 223 228 241 226 218 221 206 216 182 152 153 169 182 162 152 135 121 131 156 152 146 146 157 159 163 167 176 202 190 221 242 253 273 271 278 279 290 306 313 311
242 247 260 260 240 239 238 240 223 222 221 164 156 184 186 179 160 151 144 140 155 159 197 151 156 151 166 183 173 157 180 187 215 231 231 269 283 283 281 279 291 302 306 309
253 233 242 250 253 224 243 242 246 221 201 171 163 151 158 153 149 147 153 170 180 170 149 163 162 169 167 174 153 163 184 188 222 208 243 264 271 275 276 280 291 298 288 298
239 240 237 242 261 260 237 258 216 215 192 174 175 178 166 140 142 143 146 171 184 157 157 159 168 162 154 152 155 175 178 187 201 208 244 256 279 276 278 278 282 281 278 288
242 244 246 226 242 281 309 296 249 132 145 141 129 138 140 145 145 141 148 173 152 155 149 162 161 155 155 151 167 184 195 209 208 203 242 262 262 272 273 273 284 284 269 270
262 239 227 230 262 318 34 27 74 137 143 150 154 159 162 159 156 157 174 163 149 157 151 151 145 150 150 159 175 177 195 209 211 220 245 252 256 259 263 271 276 276 280 282
180 178 168 129 130 128 146 80 93 101 103 109 124 144 140 139 108 88 106 141 143 153 151 146 151 153 156 167 174 179 208 217 220 232 253 253 252 261 263 263 273 276 274 279
183 162 153 167 182 176 133 127 110 119 121 123 131 130 129 134 136 155 133 143 146 149 142 148 159 161 170 178 177 199 219 220 231 223 241 249 260 262 267 262 259 272 273 272
182 194 179 184 190 158 145 151 140 143 134 126 125 122 114 103 113 131 128 134 143 143 150 159 166 172 178 185 199 217 224 235 234 238 241 252 256 263 266 269 264 270 270 274
135 136 136 130 166 152 156 158 149 158 150 147 128 137 131 123 123 126 128 134 142 151 153 159 172 183 187 199 213 224 228 232 230 243 248 253 256 260 268 267 264 269 269 274